Time,TemperatureF,DewpointF,PressureIn,WindDirection,WindDirectionDegrees,WindSpeedMPH,WindSpeedGustMPH,Humidity,HourlyPrecipIn,Conditions,Clouds,dailyrainin,SolarRadiationWatts/m^2,SoftwareType,DateUTC
2013-02-10 00:01:00,53.0,52.0,-100.00,East,87,3.0,12.0,96,0.00,,,0.00,0.000000,,2013-02-10 10:01:00,
2013-02-10 00:11:00,53.0,52.0,-100.00,East,87,3.0,12.0,96,0.00,,,0.00,0.000000,,2013-02-10 10:11:00,
2013-02-10 00:21:00,53.0,52.0,-100.00,East,87,3.0,12.0,96,0.00,,,0.00,0.000000,,2013-02-10 10:21:00,
2013-02-10 00:42:00,52.0,51.0,-100.00,East,85,3.0,12.0,95,0.00,,,-99.99,0.000000,,2013-02-10 10:42:00,
2013-02-10 00:52:00,52.0,51.0,-100.00,East,85,3.0,12.0,95,0.00,,,-99.99,0.000000,,2013-02-10 10:52:00,
2013-02-10 01:01:00,52.0,51.0,-100.00,East,85,3.0,12.0,95,0.00,,,-99.99,0.000000,,2013-02-10 11:01:00,
2013-02-10 01:11:00,52.0,51.0,-100.00,East,85,3.0,12.0,95,0.00,,,-99.99,0.000000,,2013-02-10 11:11:00,
2013-02-10 01:21:00,52.0,51.0,-100.00,East,85,3.0,12.0,95,0.00,,,-99.99,0.000000,,2013-02-10 11:21:00,
2013-02-10 01:42:00,52.0,51.0,-100.00,East,80,3.0,11.0,95,0.00,,,0.00,0.000000,,2013-02-10 11:42:00,
2013-02-10 01:52:00,52.0,51.0,-100.00,East,80,3.0,11.0,95,0.00,,,0.00,0.000000,,2013-02-10 11:52:00,
2013-02-10 02:01:00,52.0,51.0,-100.00,East,80,3.0,11.0,95,0.00,,,0.00,0.000000,,2013-02-10 12:01:00,
2013-02-10 02:12:00,52.0,51.0,-100.00,East,80,3.0,11.0,95,0.00,,,0.00,0.000000,,2013-02-10 12:12:00,
2013-02-10 02:21:00,52.0,51.0,-100.00,East,80,3.0,11.0,95,0.00,,,0.00,0.000000,,2013-02-10 12:21:00,
2013-02-10 04:42:00,53.0,52.0,-100.00,East,100,3.0,12.0,95,-99.99,,,0.00,0.000000,,2013-02-10 14:42:00,
2013-02-10 04:52:00,53.0,52.0,-100.00,East,100,3.0,12.0,95,-99.99,,,0.00,0.000000,,2013-02-10 14:52:00,
2013-02-10 05:01:00,53.0,52.0,-100.00,East,100,3.0,12.0,95,-99.99,,,0.00,0.000000,,2013-02-10 15:01:00,
2013-02-10 05:11:00,53.0,52.0,-100.00,East,100,3.0,12.0,95,-99.99,,,0.00,0.000000,,2013-02-10 15:11:00,
2013-02-10 05:21:00,53.0,52.0,-100.00,East,100,3.0,12.0,95,-99.99,,,0.00,0.000000,,2013-02-10 15:21:00,
2013-02-10 05:42:00,52.0,50.0,-100.00,East,97,2.0,9.0,94,0.00,,,-99.99,0.000000,,2013-02-10 15:42:00,
2013-02-10 05:52:00,52.0,50.0,-100.00,East,97,2.0,9.0,94,0.00,,,-99.99,0.000000,,2013-02-10 15:52:00,
2013-02-10 06:01:00,52.0,50.0,-100.00,East,97,2.0,9.0,94,0.00,,,-99.99,0.000000,,2013-02-10 16:01:00,
2013-02-10 06:11:00,52.0,50.0,-100.00,East,97,2.0,9.0,94,0.00,,,-99.99,0.000000,,2013-02-10 16:11:00,
2013-02-10 06:21:00,52.0,50.0,-100.00,East,97,2.0,9.0,94,0.00,,,-99.99,0.000000,,2013-02-10 16:21:00,
2013-02-10 06:42:00,52.0,50.0,-100.00,East,95,2.0,11.0,93,0.00,,,0.00,0.000000,,2013-02-10 16:42:00,
2013-02-10 06:52:00,52.0,50.0,-100.00,East,95,2.0,11.0,93,0.00,,,0.00,0.000000,,2013-02-10 16:52:00,
2013-02-10 07:01:00,52.0,50.0,-100.00,East,95,2.0,11.0,93,0.00,,,0.00,0.000000,,2013-02-10 17:01:00,
2013-02-10 07:11:00,52.0,50.0,-100.00,East,95,2.0,11.0,93,0.00,,,0.00,0.000000,,2013-02-10 17:11:00,
2013-02-10 07:21:00,52.0,50.0,-100.00,East,95,2.0,11.0,93,0.00,,,0.00,0.000000,,2013-02-10 17:21:00,
2013-02-10 07:42:00,53.0,52.0,-100.00,East,97,2.0,12.0,95,0.00,,,0.00,0.000000,,2013-02-10 17:42:00,
2013-02-10 07:52:00,53.0,52.0,-100.00,East,97,2.0,12.0,95,0.00,,,0.00,0.000000,,2013-02-10 17:52:00,
2013-02-10 08:01:00,53.0,52.0,-100.00,East,97,2.0,12.0,95,0.00,,,0.00,0.000000,,2013-02-10 18:01:00,
2013-02-10 08:11:00,53.0,52.0,-100.00,East,97,2.0,12.0,95,0.00,,,0.00,0.000000,,2013-02-10 18:11:00,
2013-02-10 08:21:00,53.0,52.0,-100.00,East,97,2.0,12.0,95,0.00,,,0.00,0.000000,,2013-02-10 18:21:00,
2013-02-10 08:42:00,54.0,53.0,-100.00,East,95,2.0,9.0,96,0.00,,,-99.99,25.000000,,2013-02-10 18:42:00,
2013-02-10 08:52:00,54.0,53.0,-100.00,East,95,2.0,9.0,96,0.00,,,-99.99,25.000000,,2013-02-10 18:52:00,
2013-02-10 09:01:00,54.0,53.0,-100.00,East,95,2.0,9.0,96,0.00,,,-99.99,25.000000,,2013-02-10 19:01:00,
2013-02-10 09:11:00,54.0,53.0,-100.00,East,95,2.0,9.0,96,0.00,,,-99.99,25.000000,,2013-02-10 19:11:00,
2013-02-10 09:21:00,54.0,53.0,-100.00,East,95,2.0,9.0,96,0.00,,,-99.99,25.000000,,2013-02-10 19:21:00,
2013-02-10 09:43:00,55.0,54.0,-100.00,East,90,2.0,12.0,96,0.00,,,0.00,72.000000,,2013-02-10 19:43:00,
2013-02-10 09:52:00,55.0,54.0,-100.00,East,90,2.0,12.0,96,0.00,,,0.00,72.000000,,2013-02-10 19:52:00,
2013-02-10 10:01:00,55.0,54.0,-100.00,East,90,2.0,12.0,96,0.00,,,0.00,72.000000,,2013-02-10 20:01:00,
2013-02-10 10:11:00,55.0,54.0,-100.00,East,90,2.0,12.0,96,0.00,,,0.00,72.000000,,2013-02-10 20:11:00,
2013-02-10 10:21:00,55.0,54.0,-100.00,East,90,2.0,12.0,96,0.00,,,0.00,72.000000,,2013-02-10 20:21:00,
2013-02-10 10:42:00,56.0,55.0,-100.00,East,83,2.0,10.0,96,0.00,,,0.00,159.000000,,2013-02-10 20:42:00,
2013-02-10 10:52:00,56.0,55.0,-100.00,East,83,2.0,10.0,96,0.00,,,0.00,159.000000,,2013-02-10 20:52:00,
2013-02-10 11:02:00,56.0,55.0,-100.00,East,83,2.0,10.0,96,0.00,,,0.00,159.000000,,2013-02-10 21:02:00,
2013-02-10 11:11:00,56.0,55.0,-100.00,East,83,2.0,10.0,96,0.00,,,0.00,159.000000,,2013-02-10 21:11:00,
2013-02-10 11:21:00,56.0,55.0,-100.00,East,83,2.0,10.0,96,0.00,,,0.00,159.000000,,2013-02-10 21:21:00,
2013-02-10 11:42:00,57.0,56.0,-100.00,East,82,3.0,11.0,95,0.00,,,-99.99,205.000000,,2013-02-10 21:42:00,
2013-02-10 11:52:00,57.0,56.0,-100.00,East,82,3.0,11.0,95,0.00,,,-99.99,205.000000,,2013-02-10 21:52:00,
2013-02-10 12:01:00,57.0,56.0,-100.00,East,82,3.0,11.0,95,0.00,,,-99.99,205.000000,,2013-02-10 22:01:00,
2013-02-10 12:11:00,57.0,56.0,-100.00,East,82,3.0,11.0,95,0.00,,,-99.99,205.000000,,2013-02-10 22:11:00,
2013-02-10 12:21:00,57.0,56.0,-100.00,East,82,3.0,11.0,95,0.00,,,-99.99,205.000000,,2013-02-10 22:21:00,
2013-02-10 12:42:00,57.0,56.0,-100.00,East,94,2.0,11.0,95,0.00,,,0.00,204.000000,,2013-02-10 22:42:00,
2013-02-10 12:52:00,57.0,56.0,-100.00,East,94,2.0,11.0,95,0.00,,,0.00,204.000000,,2013-02-10 22:52:00,
2013-02-10 13:01:00,57.0,56.0,-100.00,East,94,2.0,11.0,95,0.00,,,0.00,204.000000,,2013-02-10 23:01:00,
2013-02-10 13:11:00,57.0,56.0,-100.00,East,94,2.0,11.0,95,0.00,,,0.00,204.000000,,2013-02-10 23:11:00,
2013-02-10 13:21:00,57.0,56.0,-100.00,East,94,2.0,11.0,95,0.00,,,0.00,204.000000,,2013-02-10 23:21:00,
2013-02-10 13:42:00,57.0,55.0,-100.00,East,84,3.0,13.0,93,0.00,,,0.00,279.000000,,2013-02-10 23:42:00,
2013-02-10 13:52:00,57.0,55.0,-100.00,East,84,3.0,13.0,93,0.00,,,0.00,279.000000,,2013-02-10 23:52:00,
2013-02-10 14:01:00,57.0,55.0,-100.00,East,84,3.0,13.0,93,0.00,,,0.00,279.000000,,2013-02-11 00:01:00,
2013-02-10 14:11:00,57.0,55.0,-100.00,East,84,3.0,13.0,93,0.00,,,0.00,279.000000,,2013-02-11 00:11:00,
2013-02-10 14:21:00,57.0,55.0,-100.00,East,84,3.0,13.0,93,0.00,,,0.00,279.000000,,2013-02-11 00:21:00,
2013-02-10 14:42:00,57.0,56.0,-100.00,East,85,3.0,16.0,95,0.00,,,0.00,193.000000,,2013-02-11 00:42:00,
2013-02-10 14:52:00,57.0,56.0,-100.00,East,85,3.0,16.0,95,0.00,,,0.00,193.000000,,2013-02-11 00:52:00,
2013-02-10 15:01:00,57.0,56.0,-100.00,East,85,3.0,16.0,95,0.00,,,0.00,193.000000,,2013-02-11 01:01:00,
2013-02-10 15:11:00,57.0,56.0,-100.00,East,85,3.0,16.0,95,0.00,,,0.00,193.000000,,2013-02-11 01:11:00,
2013-02-10 15:21:00,57.0,56.0,-100.00,East,85,3.0,16.0,95,0.00,,,0.00,193.000000,,2013-02-11 01:21:00,
2013-02-10 15:42:00,56.0,55.0,-100.00,East,95,3.0,13.0,95,0.00,,,0.00,154.000000,,2013-02-11 01:42:00,
2013-02-10 15:52:00,56.0,55.0,-100.00,East,95,3.0,13.0,95,0.00,,,0.00,154.000000,,2013-02-11 01:52:00,
2013-02-10 16:01:00,56.0,55.0,-100.00,East,95,3.0,13.0,95,0.00,,,0.00,154.000000,,2013-02-11 02:01:00,
2013-02-10 16:11:00,56.0,55.0,-100.00,East,95,3.0,13.0,95,0.00,,,0.00,154.000000,,2013-02-11 02:11:00,
2013-02-10 16:21:00,56.0,55.0,-100.00,East,95,3.0,13.0,95,0.00,,,0.00,154.000000,,2013-02-11 02:21:00,
2013-02-10 16:42:00,57.0,56.0,-100.00,East,97,2.0,10.0,95,0.00,,,0.00,240.000000,,2013-02-11 02:42:00,
2013-02-10 16:52:00,57.0,56.0,-100.00,East,97,2.0,10.0,95,0.00,,,0.00,240.000000,,2013-02-11 02:52:00,
2013-02-10 17:01:00,57.0,56.0,-100.00,East,97,2.0,10.0,95,0.00,,,0.00,240.000000,,2013-02-11 03:01:00,
2013-02-10 17:11:00,57.0,56.0,-100.00,East,97,2.0,10.0,95,0.00,,,0.00,240.000000,,2013-02-11 03:11:00,
2013-02-10 17:21:00,57.0,56.0,-100.00,East,97,2.0,10.0,95,0.00,,,0.00,240.000000,,2013-02-11 03:21:00,
2013-02-10 17:42:00,57.0,54.0,-100.00,ESE,112,2.0,10.0,89,0.00,,,0.00,219.000000,,2013-02-11 03:42:00,
2013-02-10 17:52:00,57.0,54.0,-100.00,ESE,112,2.0,10.0,89,0.00,,,0.00,219.000000,,2013-02-11 03:52:00,
2013-02-10 18:01:00,57.0,54.0,-100.00,ESE,112,2.0,10.0,89,0.00,,,0.00,219.000000,,2013-02-11 04:01:00,
2013-02-10 18:11:00,57.0,54.0,-100.00,ESE,112,2.0,10.0,89,0.00,,,0.00,219.000000,,2013-02-11 04:11:00,
2013-02-10 18:21:00,57.0,54.0,-100.00,ESE,112,2.0,10.0,89,0.00,,,0.00,219.000000,,2013-02-11 04:21:00,
2013-02-10 18:22:00,57.0,55.0,-100.00,East,90,2.0,8.0,94,0.00,,,0.00,64.000000,,2013-02-11 04:22:00,
2013-02-10 18:42:00,57.0,55.0,-100.00,East,90,2.0,8.0,94,0.00,,,0.00,64.000000,,2013-02-11 04:42:00,
2013-02-10 18:52:00,57.0,55.0,-100.00,East,90,2.0,8.0,94,0.00,,,0.00,64.000000,,2013-02-11 04:52:00,
2013-02-10 19:01:00,57.0,55.0,-100.00,East,90,2.0,8.0,94,0.00,,,0.00,64.000000,,2013-02-11 05:01:00,
2013-02-10 19:11:00,57.0,55.0,-100.00,East,90,2.0,8.0,94,0.00,,,0.00,64.000000,,2013-02-11 05:11:00,
2013-02-10 19:42:00,56.0,55.0,-100.00,East,92,3.0,11.0,96,0.00,,,0.00,4.000000,,2013-02-11 05:42:00,
2013-02-10 19:52:00,56.0,55.0,-100.00,East,92,3.0,11.0,96,0.00,,,0.00,4.000000,,2013-02-11 05:52:00,
2013-02-10 20:01:00,56.0,55.0,-100.00,East,92,3.0,11.0,96,0.00,,,0.00,4.000000,,2013-02-11 06:01:00,
2013-02-10 20:11:00,56.0,55.0,-100.00,East,92,3.0,11.0,96,0.00,,,0.00,4.000000,,2013-02-11 06:11:00,
2013-02-10 20:21:00,56.0,55.0,-100.00,East,92,3.0,11.0,96,0.00,,,0.00,4.000000,,2013-02-11 06:21:00,
2013-02-10 20:42:00,55.0,54.0,-100.00,East,79,3.0,11.0,97,0.00,,,0.00,0.000000,,2013-02-11 06:42:00,
2013-02-10 20:52:00,55.0,54.0,-100.00,East,79,3.0,11.0,97,0.00,,,0.00,0.000000,,2013-02-11 06:52:00,
2013-02-10 21:01:00,55.0,54.0,-100.00,East,79,3.0,11.0,97,0.00,,,0.00,0.000000,,2013-02-11 07:01:00,
2013-02-10 21:11:00,55.0,54.0,-100.00,East,79,3.0,11.0,97,0.00,,,0.00,0.000000,,2013-02-11 07:11:00,
2013-02-10 21:21:00,55.0,54.0,-100.00,East,79,3.0,11.0,97,0.00,,,0.00,0.000000,,2013-02-11 07:21:00,
2013-02-10 21:42:00,56.0,55.0,-100.00,East,94,3.0,15.0,97,0.00,,,0.00,0.000000,,2013-02-11 07:42:00,
2013-02-10 21:52:00,56.0,55.0,-100.00,East,94,3.0,15.0,97,0.00,,,0.00,0.000000,,2013-02-11 07:52:00,
2013-02-10 22:01:00,56.0,55.0,-100.00,East,94,3.0,15.0,97,0.00,,,0.00,0.000000,,2013-02-11 08:01:00,
2013-02-10 22:11:00,56.0,55.0,-100.00,East,94,3.0,15.0,97,0.00,,,0.00,0.000000,,2013-02-11 08:11:00,
2013-02-10 22:21:00,56.0,55.0,-100.00,East,94,3.0,15.0,97,0.00,,,0.00,0.000000,,2013-02-11 08:21:00,
2013-02-10 22:42:00,56.0,55.0,-100.00,East,88,3.0,13.0,97,0.00,,,0.00,0.000000,,2013-02-11 08:42:00,
2013-02-10 22:52:00,56.0,55.0,-100.00,East,88,3.0,13.0,97,0.00,,,0.00,0.000000,,2013-02-11 08:52:00,
2013-02-10 23:01:00,56.0,55.0,-100.00,East,88,3.0,13.0,97,0.00,,,0.00,0.000000,,2013-02-11 09:01:00,
2013-02-10 23:12:00,56.0,55.0,-100.00,East,88,3.0,13.0,97,0.00,,,0.00,0.000000,,2013-02-11 09:12:00,
2013-02-10 23:21:00,56.0,55.0,-100.00,East,88,3.0,13.0,97,0.00,,,0.00,0.000000,,2013-02-11 09:21:00,
2013-02-10 23:42:00,55.0,54.0,-100.00,East,80,3.0,20.0,97,0.00,,,0.00,0.000000,,2013-02-11 09:42:00,
2013-02-10 23:52:00,55.0,54.0,-100.00,East,80,3.0,20.0,97,0.00,,,0.00,0.000000,,2013-02-11 09:52:00,